Gene Autry, OK

5:38 PM CDT on September 24, 2016 (GMT -0500)
Ardmore Municipal

Weather History for KADM - October, 2012

Change the Weather History Date:

Saturday, October 27, 2012

  Actual Average Record
Temperature  
Mean Temperature 40 °F -  
Max Temperature 48 °F 69 °F 86 °F (2004)
Min Temperature 32 °F 51 °F 32 °F (2012)
Degree Days  
Heating Degree Days 25    
Moisture  
Dew Point 30 °F    
Average Humidity 83    
Maximum Humidity 93    
Minimum Humidity 54    
Precipitation  
Precipitation 0.00 in - - ()
Sea Level Pressure  
Sea Level Pressure 30.33 in    
Wind  
Wind Speed 4 mph (NNW)    
Max Wind Speed 10 mph    
Max Gust Speed 16 mph    
Visibility 10 miles    
Events      
Averages and records for this station are not official NWS values.
T = Trace of Precipitation, MM = Missing Value Source: NWS Daily Summary

Daily Weather History Graph

Daily Weather History Graph

Search for Another Location

Airport or City:

Trip Planner

Search our weather history database for the weather conditions in past years. The results will help you decide how hot, cold, wet, or windy it might be!

Date:

Astronomy

Oct. 27, 2012 Rise Set
Actual Time 7:43 AM CDT 6:39 PM CDT
Civil Twilight 7:18 AM CDT 7:04 PM CDT
Nautical Twilight 6:48 AM CDT 7:34 PM CDT
Astronomical Twilight 6:19 AM CDT 8:03 PM CDT
Moon 5:23 PM CDT (10/27) 5:43 AM CDT (10/27)
Length of Visible Light 11h 46m
Length of Day
10h 55m
Waxing Gibbous, 96% of the Moon is Illuminated
Oct 27
Waxing Gibbous
Oct 29
Full
Nov 6
Last Quarter
Nov 13
New
Nov 20
First Quarter

Hourly Weather History & Observations

Time (CDT) Temp. Windchill Dew Point Humidity Pressure Visibility Wind Dir Wind Speed Gust Speed Precip Events Conditions
12:15 AM 39.2 °F 37.0 °F 30.2 °F 70% 30.35 in 10.0 mi North 3.5 mph - N/A   Clear
12:35 AM 37.4 °F 34.9 °F 30.2 °F 75% 30.35 in 10.0 mi NNW 3.5 mph - N/A   Clear
12:55 AM 37.4 °F 34.9 °F 30.2 °F 75% 30.35 in 10.0 mi NNW 3.5 mph - N/A   Clear
1:15 AM 37.4 °F - 30.2 °F 75% 30.34 in 10.0 mi Calm Calm - N/A   Clear
1:55 AM 35.6 °F 32.8 °F 30.2 °F 81% 30.34 in 10.0 mi WNW 3.5 mph - N/A   Clear
2:15 AM 35.6 °F - 30.2 °F 81% 30.34 in 10.0 mi Calm Calm - N/A   Clear
2:35 AM 33.8 °F 29.6 °F 30.2 °F 87% 30.34 in 10.0 mi NNW 4.6 mph - N/A   Clear
2:55 AM 33.8 °F 28.6 °F 30.2 °F 87% 30.33 in 10.0 mi North 5.8 mph - N/A   Clear
3:35 AM 33.8 °F 28.6 °F 30.2 °F 87% 30.33 in 10.0 mi NNW 5.8 mph - N/A   Clear
3:55 AM 33.8 °F 27.0 °F 30.2 °F 87% 30.32 in 10.0 mi NNW 8.1 mph - N/A   Clear
4:15 AM 33.8 °F 27.7 °F 30.2 °F 87% 30.32 in 10.0 mi North 6.9 mph - N/A   Clear
4:35 AM 32.0 °F 27.5 °F 30.2 °F 93% 30.32 in 10.0 mi NNW 4.6 mph - N/A   Clear
4:55 AM 33.8 °F 30.8 °F 30.2 °F 87% 30.32 in 10.0 mi WNW 3.5 mph - N/A   Clear
5:15 AM 32.0 °F 26.4 °F 30.2 °F 93% 30.32 in 10.0 mi WNW 5.8 mph - N/A   Clear
5:35 AM 32.0 °F 25.6 °F 30.2 °F 93% 30.32 in 10.0 mi NW 6.9 mph - N/A   Clear
5:55 AM 32.0 °F 28.7 °F 30.2 °F 93% 30.33 in 10.0 mi NNW 3.5 mph - N/A   Clear
6:15 AM 32.0 °F 27.5 °F 30.2 °F 93% 30.33 in 10.0 mi North 4.6 mph - N/A   Clear
6:55 AM 32.0 °F 27.5 °F 28.4 °F 87% 30.33 in 10.0 mi NNW 4.6 mph - N/A   Clear
10:55 AM 48.2 °F - 32.0 °F 54% 30.36 in 10.0 mi NE 10.4 mph 16.1 mph N/A   Clear
11:35 PM 37.4 °F - 32.0 °F 81% 30.25 in 10.0 mi Calm Calm - N/A   Clear
11:55 PM 37.4 °F - 32.0 °F 81% 30.25 in 10.0 mi Calm Calm - N/A   Clear